Sedona, AZ

11:33 AM MST on June 25, 2017 (GMT -0700)
Sedona

Weather History for KSEZ - November, 2013

Change the Weather History Date:

Wednesday, November 6, 2013

  Actual Average Record
Temperature  
Mean Temperature 54 °F -  
Max Temperature 68 °F 70 °F 82 °F (2012)
Min Temperature 41 °F 39 °F 35 °F (2011)
Degree Days  
Heating Degree Days 10    
Growing Degree Days 4 (Base 50)    
Moisture  
Dew Point 5 °F    
Average Humidity 16    
Maximum Humidity 24    
Minimum Humidity 9    
Precipitation  
Precipitation 0.00 in - - ()
Sea Level Pressure  
Sea Level Pressure 30.34 in    
Wind  
Wind Speed 11 mph (ENE)    
Max Wind Speed 18 mph    
Max Gust Speed 28 mph    
Visibility 10 miles    
Events      
Averages and records for this station are not official NWS values.
T = Trace of Precipitation, MM = Missing Value Source: NWS Daily Summary

Daily Weather History Graph

Daily Weather History Graph

Search for Another Location

Airport or City:

Trip Planner

Search our weather history database for the weather conditions in past years. The results will help you decide how hot, cold, wet, or windy it might be!

Date:

Astronomy

Nov. 06, 2013 Rise Set
Actual Time 6:52 AM MST 5:28 PM MST
Civil Twilight 6:26 AM MST 5:54 PM MST
Nautical Twilight 5:56 AM MST 6:24 PM MST
Astronomical Twilight 5:26 AM MST 6:54 PM MST
Moon 10:08 AM MST (11/6) 8:39 PM MST (11/6)
Length of Visible Light 11h 28m
Length of Day
10h 35m
Waxing Crescent, 14% of the Moon is Illuminated
Nov 6
Waxing Crescent
Nov 9
First Quarter
Nov 17
Full
Nov 25
Last Quarter
Dec 2
New

Hourly Weather History & Observations

Time (MST) Temp. Windchill Dew Point Humidity Pressure Visibility Wind Dir Wind Speed Gust Speed Precip Events Conditions
12:15 AM 42.8 °F 36.6 °F 3.2 °F 19% 30.28 in 10.0 mi ENE 11.5 mph - N/A   Clear
12:35 AM 42.8 °F 36.2 °F 3.2 °F 19% 30.29 in 10.0 mi NE 12.7 mph - N/A   Clear
12:55 AM 41.0 °F 35.8 °F 3.2 °F 21% 30.29 in 10.0 mi ENE 8.1 mph - N/A   Clear
1:15 AM 41.0 °F 35.2 °F 3.2 °F 21% 30.29 in 10.0 mi ENE 9.2 mph - N/A   Clear
1:35 AM 41.0 °F 34.7 °F 3.2 °F 21% 30.29 in 10.0 mi ENE 10.4 mph - N/A   Clear
1:55 AM 41.0 °F 34.7 °F 3.2 °F 21% 30.29 in 10.0 mi ENE 10.4 mph - N/A   Clear
2:15 AM 41.0 °F 35.2 °F 1.4 °F 19% 30.30 in 10.0 mi ENE 9.2 mph - N/A   Clear
2:35 AM 41.0 °F 34.3 °F 1.4 °F 19% 30.30 in 10.0 mi ENE 11.5 mph - N/A   Clear
2:55 AM 41.0 °F 33.9 °F 1.4 °F 19% 30.30 in 10.0 mi ENE 12.7 mph - N/A   Clear
3:15 AM 41.0 °F 34.3 °F 1.4 °F 19% 30.30 in 10.0 mi NE 11.5 mph 18.4 mph N/A   Clear
3:35 AM 41.0 °F 33.9 °F 1.4 °F 19% 30.30 in 10.0 mi ENE 12.7 mph 19.6 mph N/A   Clear
3:55 AM 41.0 °F 34.3 °F 3.2 °F 21% 30.30 in 10.0 mi ENE 11.5 mph 17.3 mph N/A   Clear
4:15 AM 41.0 °F 33.5 °F 3.2 °F 21% 30.30 in 10.0 mi ENE 13.8 mph 23.0 mph N/A   Clear
4:35 AM 41.0 °F 34.7 °F 3.2 °F 21% 30.31 in 10.0 mi ENE 10.4 mph - N/A   Clear
4:55 AM 41.0 °F 33.9 °F 3.2 °F 21% 30.30 in 10.0 mi ENE 12.7 mph 20.7 mph N/A   Clear
5:15 AM 41.0 °F 34.7 °F 3.2 °F 21% 30.31 in 10.0 mi ENE 10.4 mph 18.4 mph N/A   Clear
5:35 AM 41.0 °F 34.3 °F 3.2 °F 21% 30.32 in 10.0 mi ENE 11.5 mph - N/A   Clear
5:55 AM 41.0 °F 34.7 °F 5.0 °F 23% 30.32 in 10.0 mi ENE 10.4 mph - N/A   Clear
6:15 AM 41.0 °F 35.8 °F 5.0 °F 23% 30.34 in 10.0 mi East 8.1 mph - N/A   Clear
6:35 AM 41.0 °F 34.7 °F 5.0 °F 23% 30.34 in 10.0 mi ENE 10.4 mph - N/A   Clear
6:55 AM 41.0 °F 34.7 °F 5.0 °F 23% 30.34 in 10.0 mi ENE 10.4 mph - N/A   Clear
7:15 AM 41.0 °F 34.3 °F 6.8 °F 24% 30.34 in 10.0 mi ENE 11.5 mph - N/A   Clear
7:35 AM 42.8 °F 36.6 °F 6.8 °F 23% 30.35 in 10.0 mi ENE 11.5 mph 19.6 mph N/A   Clear
7:55 AM 44.6 °F 38.4 °F 6.8 °F 21% 30.36 in 10.0 mi ENE 12.7 mph 18.4 mph N/A   Clear
8:15 AM 46.4 °F 40.7 °F 6.8 °F 20% 30.37 in 10.0 mi East 12.7 mph 17.3 mph N/A   Clear
8:35 AM 46.4 °F 41.5 °F 8.6 °F 22% 30.38 in 10.0 mi East 10.4 mph 16.1 mph N/A   Clear
8:55 AM 50.0 °F - 8.6 °F 19% 30.38 in 10.0 mi East 9.2 mph - N/A   Clear
9:15 AM 51.8 °F - 8.6 °F 18% 30.38 in 10.0 mi East 9.2 mph - N/A   Clear
9:35 AM 51.8 °F - 8.6 °F 18% 30.38 in 10.0 mi ESE 4.6 mph - N/A   Clear
9:55 AM 53.6 °F - 8.6 °F 16% 30.38 in 10.0 mi ESE 4.6 mph - N/A   Clear
10:15 AM 57.2 °F - 8.6 °F 14% 30.37 in 10.0 mi ESE 8.1 mph - N/A   Clear
10:35 AM 55.4 °F - 8.6 °F 15% 30.37 in 10.0 mi West 4.6 mph - N/A   Clear
10:55 AM 55.4 °F - 10.4 °F 17% 30.37 in 10.0 mi Calm Calm - N/A   Clear
11:15 AM 59.0 °F - 10.4 °F 15% 30.36 in 10.0 mi SW 4.6 mph - N/A   Clear
11:35 AM 59.0 °F - 10.4 °F 15% 30.36 in 10.0 mi SSW 4.6 mph - N/A   Clear
11:55 AM 60.8 °F - 10.4 °F 14% 30.35 in 10.0 mi SSW 6.9 mph - N/A   Clear
12:15 PM 60.8 °F - 10.4 °F 14% 30.34 in 10.0 mi South 5.8 mph - N/A   Clear
12:35 PM 60.8 °F - 10.4 °F 14% 30.33 in 10.0 mi South 4.6 mph - N/A   Clear
12:55 PM 64.4 °F - 12.2 °F 13% 30.32 in 10.0 mi SSW 8.1 mph - N/A   Clear
1:15 PM 64.4 °F - 10.4 °F 12% 30.32 in 10.0 mi SSW 4.6 mph - N/A   Clear
1:35 PM 64.4 °F - 10.4 °F 12% 30.32 in 10.0 mi Calm Calm - N/A   Clear
1:55 PM 66.2 °F - 12.2 °F 12% 30.31 in 10.0 mi SSE 3.5 mph - N/A   Clear
2:15 PM 66.2 °F - 10.4 °F 11% 30.30 in 10.0 mi South 5.8 mph - N/A   Clear
2:35 PM 66.2 °F - 10.4 °F 11% 30.31 in 10.0 mi WSW 3.5 mph - N/A   Clear
2:55 PM 68.0 °F - 10.4 °F 11% 30.31 in 10.0 mi SSE 8.1 mph - N/A   Clear
3:15 PM 66.2 °F - 8.6 °F 11% 30.31 in 10.0 mi East 5.8 mph - N/A   Clear
3:35 PM 66.2 °F - 8.6 °F 11% 30.31 in 10.0 mi East 9.2 mph - N/A   Clear
3:55 PM 64.4 °F - 8.6 °F 11% 30.31 in 10.0 mi ENE 8.1 mph - N/A   Clear
4:15 PM 62.6 °F - 5.0 °F 10% 30.31 in 10.0 mi East 11.5 mph - N/A   Clear
4:35 PM 62.6 °F - 5.0 °F 10% 30.32 in 10.0 mi East 12.7 mph 16.1 mph N/A   Clear
4:55 PM 60.8 °F - 3.2 °F 10% 30.32 in 10.0 mi East 15.0 mph 19.6 mph N/A   Clear
5:15 PM 59.0 °F - 3.2 °F 11% 30.33 in 10.0 mi ENE 8.1 mph 17.3 mph N/A   Clear
5:35 PM 57.2 °F - 3.2 °F 11% 30.33 in 10.0 mi ENE 13.8 mph 18.4 mph N/A   Clear
5:55 PM 55.4 °F - 1.4 °F 11% 30.33 in 10.0 mi ENE 15.0 mph 21.9 mph N/A   Clear
6:15 PM 53.6 °F - 1.4 °F 12% 30.34 in 10.0 mi ENE 13.8 mph 18.4 mph N/A   Clear
6:35 PM 53.6 °F - 1.4 °F 12% 30.35 in 10.0 mi ENE 16.1 mph 23.0 mph N/A   Clear
6:55 PM 51.8 °F - 1.4 °F 13% 30.36 in 10.0 mi ENE 15.0 mph 23.0 mph N/A   Clear
7:15 PM 51.8 °F - 1.4 °F 13% 30.36 in 10.0 mi NE 13.8 mph 23.0 mph N/A   Clear
7:35 PM 51.8 °F - 1.4 °F 13% 30.37 in 10.0 mi NE 18.4 mph 27.6 mph N/A   Clear
7:55 PM 51.8 °F - -0.4 °F 12% 30.37 in 10.0 mi NE 16.1 mph 23.0 mph N/A   Clear
8:15 PM 50.0 °F - -0.4 °F 13% 30.38 in 10.0 mi NE 16.1 mph 24.2 mph N/A   Clear
8:35 PM 50.0 °F - -0.4 °F 13% 30.38 in 10.0 mi NE 16.1 mph - N/A   Clear
8:55 PM 50.0 °F - -4.0 °F 11% 30.38 in 10.0 mi NE 15.0 mph 21.9 mph N/A   Clear
9:15 PM 50.0 °F - -4.0 °F 11% 30.39 in 10.0 mi NE 16.1 mph 21.9 mph N/A   Clear
9:35 PM 51.8 °F - -5.8 °F 9% 30.39 in 10.0 mi NE 15.0 mph 23.0 mph N/A   Clear
9:55 PM 51.8 °F - -5.8 °F 9% 30.40 in 10.0 mi NE 15.0 mph 23.0 mph N/A   Clear
10:15 PM 51.8 °F - -4.0 °F 10% 30.39 in 10.0 mi NE 16.1 mph 20.7 mph N/A   Clear
10:35 PM 51.8 °F - -4.0 °F 10% 30.38 in 10.0 mi NE 13.8 mph 18.4 mph N/A   Clear
10:55 PM 51.8 °F - -0.4 °F 12% 30.38 in 10.0 mi NE 15.0 mph 18.4 mph N/A   Clear
11:15 PM 50.0 °F - 1.4 °F 14% 30.37 in 10.0 mi NE 13.8 mph 20.7 mph N/A   Clear
11:35 PM 51.8 °F - 3.2 °F 14% 30.37 in 10.0 mi NE 13.8 mph 19.6 mph N/A   Clear
11:55 PM 51.8 °F - 3.2 °F 14% 30.36 in 10.0 mi ENE 12.7 mph 19.6 mph N/A   Clear